GW1727 Weather Reports


Display with metric or nautical units.
time (UTC)temp
F
wind
direction
speed
MPH
gust
MPH
rain 1hr
in
rain 24hr
in
rain mn
in
humidity
%
barometer
mb
20260507103031 38 220 0.0 0.0 0.00 0.20 0.01 79 1016.3
20260507101525 38 231 0.0 0.0 0.00 0.20 0.01 80 1016.5
20260507100022 37 228 0.0 0.0 0.00 0.20 0.01 80 1016.8
20260507094522 37 231 0.0 0.0 0.00 0.22 0.01 80 1017.0
20260507093020 37 228 0.0 0.0 0.00 0.22 0.01 80 1017.0
20260507091524 37 211 0.0 0.0 0.00 0.22 0.01 79 1017.2
20260507090016 38 219 0.0 0.0 0.00 0.22 0.01 79 1017.5
20260507084534 39 222 0.0 0.0 0.00 0.24 0.01 79 1017.6
20260507083013 39 227 0.0 0.0 0.00 0.24 0.01 79 1017.9
20260507081513 39 238 0.0 0.0 0.00 0.24 0.01 79 1018.1
20260507080009 39 233 0.0 0.0 0.00 0.24 0.01 80 1018.2
20260507074508 38 221 0.0 0.0 0.01 0.25 0.01 80 1018.4
20260507073006 38 222 0.0 0.0 0.01 0.25 0.01 80 1018.7
20260507071504 39 220 0.0 0.0 0.01 0.25 0.01 80 1018.8
20260507070002 38 222 0.0 0.0 0.01 0.25 0.01 81 1019.0
20260507064600 38 218 0.0 0.0 0.00 0.26 0.00 81 1019.3
20260507063058 38 206 0.0 0.0 0.00 0.26 0.00 81 1019.4
20260507061557 38 205 0.0 0.0 0.00 0.26 0.00 81 1019.6
20260507060101 38 237 0.0 0.0 0.00 0.26 0.00 81 1019.7
20260507054610 38 237 0.0 0.0 0.00 0.28 0.00 80 1020.0
20260507053103 38 237 0.0 0.0 0.00 0.28 0.00 80 1020.0
20260507051555 39 236 0.0 0.0 0.00 0.28 0.00 80 1020.1
20260507050050 40 218 0.0 0.0 0.00 0.28 0.00 79 1020.1
20260507044553 40 222 0.0 0.0 0.00 0.30 0.28 79 1020.2
20260507043045 40 212 0.0 0.0 0.00 0.30 0.28 79 1020.4
20260507041558 41 214 0.0 0.0 0.01 0.30 0.28 79 1020.5
20260507040044 41 197 0.0 0.0 0.01 0.30 0.28 79 1020.6
20260507034543 41 214 0.0 0.0 0.01 0.32 0.28 78 1020.4
20260507033043 42 235 0.0 0.0 0.01 0.32 0.28 77 1020.6
20260507031543 42 224 0.0 0.0 0.00 0.31 0.27 77 1020.5
20260507030041 42 227 0.0 0.0 0.00 0.31 0.27 77 1020.6
20260507024541 43 228 0.0 0.0 0.00 0.33 0.27 76 1020.5
20260507023041 43 226 0.0 0.0 0.00 0.33 0.27 75 1020.4
20260507021541 44 243 0.0 0.0 0.00 0.33 0.27 74 1020.4
20260507020054 45 240 0.0 0.0 0.00 0.33 0.27 73 1020.3
20260507014547 46 224 0.0 0.0 0.00 0.35 0.27 72 1020.3
20260507013045 47 221 0.0 0.0 0.00 0.35 0.27 71 1020.4
20260507011543 48 214 0.0 0.0 0.00 0.35 0.27 71 1020.4
20260507010044 48 241 0.0 0.0 0.00 0.35 0.27 69 1020.4
20260507004537 48 225 0.0 0.0 0.00 0.36 0.27 70 1020.4
20260507003037 48 234 0.0 0.0 0.01 0.36 0.27 70 1020.4
20260507001554 48 237 0.0 0.0 0.01 0.36 0.27 67 1020.3
20260507000041 48 226 0.0 0.0 0.01 0.36 0.27 67 1020.4
20260506234540 48 226 0.0 0.0 0.00 0.37 0.26 69 1020.5
20260506233039 49 225 0.0 0.0 0.01 0.37 0.26 67 1020.5
20260506231536 50 226 0.0 0.0 0.01 0.37 0.26 62 1020.5
20260506230033 49 213 0.0 0.0 0.01 0.37 0.26 63 1020.6
20260506224533 49 238 0.0 0.0 0.01 0.37 0.26 65 1020.5
20260506223030 49 311 0.0 0.0 0.00 0.36 0.25 65 1020.5
20260506221530 49 268 0.0 0.0 0.00 0.36 0.25 67 1020.7
20260506220031 49 239 0.0 0.0 0.01 0.36 0.25 66 1020.9
20260506214527 48 237 0.0 0.0 0.01 0.37 0.25 66 1021.0
20260506213026 48 229 0.0 0.0 0.01 0.37 0.25 67 1021.2
20260506211538 48 212 0.0 0.0 0.02 0.37 0.25 69 1021.3
20260506210032 47 228 0.0 0.0 0.01 0.36 0.24 69 1021.5
20260506204523 47 199 0.0 0.0 0.01 0.37 0.24 70 1021.7
20260506203018 46 173 0.0 0.0 0.01 0.37 0.24 71 1021.8
20260506201515 45 173 0.0 0.0 0.00 0.36 0.23 73 1021.9
20260506200014 44 174 0.0 0.0 0.00 0.36 0.23 75 1021.9
20260506194514 44 183 0.0 0.0 0.01 0.37 0.23 75 1022.0
20260506193015 44 239 0.0 0.0 0.01 0.37 0.23 74 1022.2
20260506191512 46 162 0.0 0.0 0.02 0.37 0.23 72 1022.2
20260506190008 45 150 0.0 0.0 0.02 0.37 0.23 72 1022.4
20260506184506 45 150 0.0 0.0 0.01 0.38 0.22 73 1022.5
20260506183005 45 340 0.0 0.0 0.01 0.38 0.22 72 1022.6
20260506181510 45 198 0.0 0.0 0.01 0.37 0.21 73 1022.7
20260506180002 44 182 0.0 0.0 0.01 0.37 0.21 74 1022.8
20260506174600 44 243 0.0 0.0 0.01 0.38 0.21 74 1022.9
20260506173125 44 195 0.0 0.0 0.02 0.38 0.21 76 1023.0
20260506171557 43 195 0.0 0.0 0.01 0.37 0.20 76 1023.1
20260506170105 42 198 0.0 0.0 0.01 0.37 0.20 76 1023.2
20260506164552 42 192 0.0 0.0 0.01 0.37 0.19 76 1023.1
20260506163055 42 193 0.0 0.0 0.01 0.37 0.19 76 1023.0
20260506161548 42 166 0.0 0.0 0.02 0.37 0.19 76 1022.9
20260506160047 42 166 0.0 0.0 0.02 0.37 0.19 77 1022.7
20260506154604 42 152 0.0 0.0 0.01 0.37 0.18 78 1022.4
20260506153043 42 37 0.0 0.0 0.02 0.37 0.18 80 1022.1
20260506151541 41 332 0.0 0.0 0.01 0.36 0.17 81 1022.3
20260506150039 41 341 0.0 0.0 0.02 0.36 0.17 81 1022.4
20260506144543 40 287 0.0 0.0 0.02 0.37 0.17 81 1022.3
20260506143036 40 269 0.0 0.0 0.01 0.36 0.16 82 1022.3
20260506141535 40 272 0.0 0.0 0.02 0.36 0.16 82 1022.3
20260506140036 40 269 0.0 0.0 0.01 0.35 0.15 82 1022.2
20260506134532 39 268 0.0 0.0 0.02 0.36 0.15 82 1022.2
20260506133038 39 268 0.0 0.0 0.02 0.36 0.15 83 1022.0
20260506131534 39 268 0.0 0.0 0.01 0.35 0.14 83 1021.8
20260506130028 39 266 0.0 0.0 0.01 0.34 0.13 82 1021.7
20260506124526 38 265 0.0 0.0 0.02 0.35 0.13 83 1021.4
20260506123026 38 265 0.0 0.0 0.02 0.35 0.13 83 1021.4
20260506121523 38 264 0.0 0.0 0.02 0.35 0.13 83 1021.1
20260506120023 38 264 0.0 0.0 0.01 0.34 0.12 82 1020.9
20260506114522 38 264 0.0 0.0 0.01 0.35 0.11 82 1020.6
20260506113018 38 267 0.0 0.0 0.01 0.35 0.11 82 1020.4
20260506111516 38 284 0.0 0.0 0.02 0.35 0.11 82 1020.3
20260506110015 38 286 0.0 0.0 0.02 0.35 0.11 82 1020.3
20260506104533 38 27 0.0 0.0 0.01 0.37 0.10 82 1020.1